Tracking 22124 objects as of 25-Jan-2021
HD Live streaming from Space Station
objects crossing your sky now

STARLINK-1872

Track STARLINK-1872 now!
10-day predictions
STARLINK-1872 is classified as:


NORAD ID: 46742
Int'l Code: 2020-074D
Perigee: 553.3 km
Apogee: 555.3 km
Inclination: 53.1 °
Period: 95.6 minutes
Semi major axis: 6925 km
RCS: Unknown
Launch date: October 24, 2020
Source: United States (US)
Launch site: AIR FORCE EASTERN TEST RANGE (AFETR)
aabbcc
Your satellite tracking list
Your tracking list is empty




NASA's NSSDC Master Catalog

Two Line Element Set (TLE):
1 46742U 20074D   21025.25001157 -.00028877  00000-0 -19269-2 0  9990
2 46742  53.0504  73.8579 0001485  70.0175 297.6998 15.06412474 14929
Source of the keplerian elements: AFSPC